Luverne, MN

1:06 AM CDT on July 26, 2017 (GMT -0500)
Luverne

Weather History for KLYV - March, 2013

Change the Weather History Date:

Wednesday, March 6, 2013

  Actual Average (KPQN) Record (KPQN)
Temperature  
Mean Temperature 22 °F -  
Max Temperature 26 °F 27 °F 69 °F (2017)
Min Temperature 17 °F 13 °F 0 °F (1997)
Degree Days  
Heating Degree Days 44    
Moisture  
Dew Point 17 °F    
Average Humidity 83    
Maximum Humidity 93    
Minimum Humidity 74    
Precipitation  
Precipitation 0.00 in - - ()
Sea Level Pressure  
Sea Level Pressure 30.34 in    
Wind  
Wind Speed 7 mph (East)    
Max Wind Speed 13 mph    
Max Gust Speed -    
Visibility 9 miles    
Events Snow    
Averages and records for this station are not official NWS values.
T = Trace of Precipitation, MM = Missing Value Source: NWS Daily Summary

Daily Weather History Graph

Daily Weather History Graph

Search for Another Location

Airport or City:

Trip Planner

Search our weather history database for the weather conditions in past years. The results will help you decide how hot, cold, wet, or windy it might be!

Date:

Astronomy

Mar. 06, 2013 Rise Set
Actual Time 6:52 AM CST 6:20 PM CST
Civil Twilight 6:23 AM CST 6:49 PM CST
Nautical Twilight 5:50 AM CST 7:22 PM CST
Astronomical Twilight 5:17 AM CST 7:55 PM CST
Moon 3:10 AM CST (3/6) 12:55 PM CST (3/6)
Length of Visible Light 12h 25m
Length of Day
11h 27m
Waning Crescent, 29% of the Moon is Illuminated
Mar 6
Waning Crescent
Mar 11
New
Mar 19
First Quarter
Mar 27
Full
Apr 2
Last Quarter

Hourly Weather History & Observations

Time (CST) Temp. Windchill Dew Point Humidity Pressure Visibility Wind Dir Wind Speed Gust Speed Precip Events Conditions
12:16 AM 21.2 °F 8.9 °F 17.6 °F 86% 30.36 in 10.0 mi North 12.7 mph - N/A   Overcast
12:37 AM 21.2 °F 10.1 °F 17.6 °F 86% 30.36 in 10.0 mi North 10.4 mph - N/A   Overcast
12:56 AM 21.2 °F 12.6 °F 17.6 °F 86% 30.37 in 10.0 mi North 6.9 mph - N/A   Overcast
1:17 AM 21.2 °F 13.6 °F 17.6 °F 86% 30.38 in 10.0 mi North 5.8 mph - N/A   Overcast
1:37 AM 21.2 °F 12.6 °F 17.6 °F 86% 30.39 in 7.0 mi North 6.9 mph - N/A   Overcast
1:56 AM 21.2 °F 13.6 °F 15.8 °F 80% 30.38 in 10.0 mi NNW 5.8 mph - N/A   Overcast
2:17 AM 21.2 °F 12.6 °F 15.8 °F 80% 30.39 in 10.0 mi North 6.9 mph - N/A   Overcast
2:37 AM 21.2 °F 10.9 °F 15.8 °F 80% 30.39 in 10.0 mi NW 9.2 mph - N/A   Overcast
2:56 AM 21.2 °F 11.7 °F 15.8 °F 80% 30.38 in 10.0 mi NNW 8.1 mph - N/A   Overcast
3:17 AM 21.2 °F 13.6 °F 15.8 °F 80% 30.38 in 10.0 mi NW 5.8 mph - N/A   Overcast
3:37 AM 19.4 °F 11.5 °F 15.8 °F 86% 30.38 in 10.0 mi North 5.8 mph - N/A   Overcast
3:56 AM 19.4 °F 10.4 °F 15.8 °F 86% 30.38 in 10.0 mi NNW 6.9 mph - N/A   Overcast
4:17 AM 19.4 °F 11.5 °F 15.8 °F 86% 30.38 in 10.0 mi North 5.8 mph - N/A   Overcast
4:36 AM 19.4 °F 11.5 °F 15.8 °F 86% 30.38 in 10.0 mi NNW 5.8 mph - N/A   Overcast
4:57 AM 19.4 °F 10.4 °F 15.8 °F 86% 30.38 in 10.0 mi North 6.9 mph - N/A   Overcast
5:17 AM 19.4 °F 10.4 °F 14.0 °F 80% 30.38 in 10.0 mi NNW 6.9 mph - N/A   Overcast
5:36 AM 19.4 °F 14.3 °F 14.0 °F 80% 30.39 in 10.0 mi NNE 3.5 mph - N/A   Overcast
5:57 AM 19.4 °F 11.5 °F 15.8 °F 86% 30.39 in 10.0 mi NNW 5.8 mph - N/A   Overcast
6:17 AM 19.4 °F 11.5 °F 14.0 °F 80% 30.38 in 10.0 mi NNW 5.8 mph - N/A   Overcast
6:36 AM 19.4 °F 10.4 °F 14.0 °F 80% 30.39 in 10.0 mi North 6.9 mph - N/A   Overcast
6:57 AM 19.4 °F 11.5 °F 14.0 °F 80% 30.39 in 10.0 mi NNE 5.8 mph - N/A   Overcast
7:17 AM 17.6 °F - 14.0 °F 86% 30.40 in 10.0 mi Calm Calm - N/A   Overcast
7:36 AM 17.6 °F 10.7 °F 14.0 °F 86% 30.40 in 10.0 mi NW 4.6 mph - N/A   Overcast
7:57 AM 17.6 °F - 14.0 °F 86% 30.41 in 10.0 mi Calm Calm - N/A   Overcast
8:17 AM 17.6 °F 12.3 °F 14.0 °F 86% 30.41 in 5.0 mi North 3.5 mph - N/A Snow Light Snow
8:36 AM 17.6 °F 12.3 °F 14.0 °F 86% 30.41 in 5.0 mi North 3.5 mph - N/A Snow Light Snow
8:57 AM 17.6 °F 10.7 °F 14.0 °F 86% 30.41 in 5.0 mi North 4.6 mph - N/A Snow Light Snow
9:17 AM 19.4 °F 12.8 °F 14.0 °F 80% 30.41 in 10.0 mi East 4.6 mph - N/A Snow Light Snow
9:36 AM 19.4 °F - 14.0 °F 80% 30.41 in 4.0 mi Calm Calm - N/A Snow Light Snow
9:57 AM 19.4 °F - 14.0 °F 80% 30.41 in 4.0 mi Calm Calm - N/A Snow Light Snow
10:16 AM 19.4 °F 14.3 °F 14.0 °F 80% 30.40 in 10.0 mi East 3.5 mph - N/A   Overcast
10:37 AM 19.4 °F - 15.8 °F 86% 30.40 in 5.0 mi Calm Calm - N/A Snow Light Snow
10:57 AM 19.4 °F - 15.8 °F 86% 30.39 in 7.0 mi Calm Calm - N/A Snow Light Snow
11:16 AM 21.2 °F - 15.8 °F 80% 30.40 in 7.0 mi Calm Calm - N/A Snow Light Snow
11:37 AM 21.2 °F 16.4 °F 15.8 °F 80% 30.39 in 10.0 mi ENE 3.5 mph - N/A   Overcast
11:57 AM 21.2 °F 16.4 °F 17.6 °F 86% 30.39 in 10.0 mi ENE 3.5 mph - N/A   Overcast
12:16 PM 21.2 °F - 17.6 °F 86% 30.38 in 10.0 mi Calm Calm - N/A   Overcast
12:37 PM 21.2 °F 13.6 °F 17.6 °F 86% 30.38 in 10.0 mi SSE 5.8 mph - N/A   Overcast
12:57 PM 23.0 °F 18.4 °F 17.6 °F 80% 30.37 in 10.0 mi SSW 3.5 mph - N/A   Overcast
1:16 PM 23.0 °F - 17.6 °F 80% 30.36 in 10.0 mi Calm Calm - N/A   Overcast
1:37 PM 23.0 °F 18.4 °F 19.4 °F 86% 30.36 in 10.0 mi South 3.5 mph - N/A   Overcast
1:57 PM 23.0 °F 18.4 °F 19.4 °F 86% 30.35 in 10.0 mi South 3.5 mph - N/A   Overcast
2:17 PM 23.0 °F 17.0 °F 19.4 °F 86% 30.34 in 10.0 mi South 4.6 mph - N/A   Overcast
2:37 PM 23.0 °F 14.7 °F 19.4 °F 86% 30.33 in 10.0 mi SE 6.9 mph - N/A   Overcast
2:56 PM 23.0 °F 15.8 °F 19.4 °F 86% 30.33 in 10.0 mi SSW 5.8 mph - N/A   Overcast
3:17 PM 24.8 °F 17.9 °F 19.4 °F 80% 30.32 in 10.0 mi South 5.8 mph - N/A   Overcast
3:37 PM 24.8 °F 16.9 °F 19.4 °F 80% 30.32 in 10.0 mi SE 6.9 mph - N/A   Overcast
3:56 PM 26.6 °F 20.0 °F 19.4 °F 74% 30.31 in 10.0 mi ESE 5.8 mph - N/A   Overcast
4:17 PM 26.6 °F 19.1 °F 19.4 °F 74% 30.31 in 10.0 mi SSE 6.9 mph - N/A   Overcast
4:36 PM 26.6 °F 17.5 °F 19.4 °F 74% 30.30 in 10.0 mi SSE 9.2 mph - N/A   Overcast
4:57 PM 26.6 °F 17.5 °F 21.2 °F 80% 30.29 in 10.0 mi SE 9.2 mph - N/A   Overcast
5:17 PM 26.6 °F 18.2 °F 19.4 °F 74% 30.29 in 10.0 mi ESE 8.1 mph - N/A   Overcast
5:36 PM 26.6 °F 18.2 °F 21.2 °F 80% 30.28 in 10.0 mi ESE 8.1 mph - N/A   Overcast
5:57 PM 26.6 °F 16.8 °F 21.2 °F 80% 30.27 in 10.0 mi ESE 10.4 mph - N/A   Overcast
6:16 PM 26.6 °F 16.2 °F 19.4 °F 74% 30.27 in 10.0 mi ESE 11.5 mph - N/A   Mostly Cloudy
6:37 PM 26.6 °F 17.5 °F 21.2 °F 80% 30.26 in 10.0 mi ESE 9.2 mph - N/A   Overcast
6:57 PM 26.6 °F 16.8 °F 21.2 °F 80% 30.26 in 10.0 mi SE 10.4 mph - N/A   Overcast
7:16 PM 26.6 °F 17.5 °F 21.2 °F 80% 30.27 in 10.0 mi ESE 9.2 mph - N/A   Overcast
7:37 PM 24.8 °F 16.1 °F 19.4 °F 80% 30.26 in 10.0 mi ESE 8.1 mph - N/A   Overcast
7:57 PM 24.8 °F 14.0 °F 19.4 °F 80% 30.26 in 10.0 mi SE 11.5 mph - N/A   Overcast
8:16 PM 23.0 °F 11.7 °F 19.4 °F 86% 30.26 in 10.0 mi ESE 11.5 mph - N/A   Overcast
8:37 PM 23.0 °F 12.4 °F 19.4 °F 86% 30.26 in 10.0 mi ESE 10.4 mph - N/A   Overcast
8:57 PM 23.0 °F 12.4 °F 19.4 °F 86% 30.26 in 10.0 mi SE 10.4 mph - N/A   Overcast
9:16 PM 23.0 °F 13.1 °F 19.4 °F 86% 30.26 in 10.0 mi ESE 9.2 mph - N/A   Overcast
9:37 PM 23.0 °F 14.7 °F 19.4 °F 86% 30.26 in 10.0 mi ESE 6.9 mph - N/A   Mostly Cloudy
9:57 PM 21.2 °F 12.6 °F 19.4 °F 93% 30.26 in 10.0 mi ESE 6.9 mph - N/A   Mostly Cloudy
10:16 PM 23.0 °F 14.7 °F 19.4 °F 86% 30.28 in 10.0 mi SE 6.9 mph - N/A   Mostly Cloudy
10:37 PM 21.2 °F 13.6 °F 19.4 °F 93% 30.28 in 10.0 mi ESE 5.8 mph - N/A   Scattered Clouds
10:56 PM 21.2 °F 12.6 °F 19.4 °F 93% 30.27 in 10.0 mi ESE 6.9 mph - N/A   Scattered Clouds
11:17 PM 21.2 °F 11.7 °F 19.4 °F 93% 30.28 in 10.0 mi ESE 8.1 mph - N/A   Mostly Cloudy
11:37 PM 21.2 °F 14.9 °F 17.6 °F 86% 30.29 in 10.0 mi ESE 4.6 mph - N/A   Scattered Clouds
11:56 PM 21.2 °F 14.9 °F 17.6 °F 86% 30.27 in 10.0 mi SE 4.6 mph - N/A   Clear